Starlink 30562

operational
NORAD ID: 58033 Int'l Des: 2023-156 Owner: SPXS Country: US Constellation: starlink
LEOCIRCULAR

Starlink 30562について

説明を読み込み中...

リアルタイム位置

3D地球を読み込み中...

次回通過

高度履歴

Altitude vs Time

uPlot chart will show altitude changes over time

軌道要素

1 58033U 23156F 25351.82947550 .00001067 00000-0 48158-4 0 9996
2 58033 53.1596 188.1281 0001489 99.0518 261.0651 15.30195502122505
Epoch: Dec 17, 2025 • Age: 24 hours

現在のステータス

高度 480.0 km
速度 7.63 km/s
衛星直下点 49.91°N, 84.79°W
打ち上げ日 Oct 9, 2023
運用期間 2.1 years
タイプ internet

技術仕様

分類 Payload
質量 730.00 kg
乾燥質量 700.00 kg
総質量 730.00 kg
長さ 0.30 m
直径 4.10 m
スパン 29.00 m
形状 Box + pan
製造者 SPXS
バスタイプ Starlink V2M
フェーズステータス In Orbit
所有者/国 SPXS/US

大規模コンステレーション

Loading constellations...